Location: Bremen
(53.0796°N, 8.8241°E)
Time: 07:11:35
(UTC+02:00)

ISS - Visible Passes

Search period start: 22 July 2018 00:00
Search period end: 01 August 2018 00:00
Orbit: 402 x 408 km, 51.6° (Epoch: 22 July)

Date Brightness Start Highest point End Pass type
(mag) Time Alt. Az. Time Alt. Az. Time Alt. Az.
22 Jul -3.9 00:31:06 10° WSW 00:34:23 65° S 00:37:39 10° E visible
22 Jul -3.8 02:07:31 10° W 02:10:45 56° SSW 02:13:59 10° ESE visible
22 Jul -2.5 03:44:16 10° W 03:46:49 21° SSW 03:49:23 10° SSE visible
22 Jul -3.8 23:39:05 10° WSW 23:42:18 56° SSE 23:45:33 10° E visible
23 Jul -3.9 01:15:24 10° W 01:18:40 65° S 01:20:53 19° ESE visible
23 Jul -2.2 02:51:58 10° W 02:53:22 20° WSW 02:53:22 20° WSW visible
23 Jul -3.5 22:47:07 10° SW 22:50:15 44° SSE 22:53:25 10° E visible
24 Jul -4.0 00:23:18 10° W 00:26:34 69° S 00:29:10 15° E visible
24 Jul -2.7 01:59:45 10° W 02:01:45 29° WSW 02:01:45 29° WSW visible
24 Jul -3.9 23:31:11 10° WSW 23:34:28 68° S 23:37:44 10° E visible
25 Jul -3.7 01:07:36 10° W 01:10:47 51° SSW 01:10:47 51° SSW visible
25 Jul -3.8 22:39:06 10° WSW 22:42:21 60° S 22:45:36 10° E visible
26 Jul -3.9 00:15:27 10° W 00:18:43 62° S 00:20:01 32° ESE visible
26 Jul -1.5 01:52:04 10° W 01:52:38 13° W 01:52:38 13° W visible
26 Jul -3.9 23:23:18 10° W 23:26:36 69° S 23:29:20 14° ESE visible
27 Jul -2.7 00:59:48 10° W 01:01:57 29° WSW 01:01:57 29° WSW visible
27 Jul -3.9 22:31:09 10° W 22:34:26 69° S 22:37:43 10° E visible
28 Jul -3.6 00:07:35 10° W 00:10:47 47° SSW 00:11:19 42° SSE visible
28 Jul -3.8 23:15:24 10° W 23:18:39 58° S 23:20:43 20° ESE visible
29 Jul -1.8 00:52:05 10° W 00:53:21 17° WSW 00:53:21 17° WSW visible
29 Jul -3.8 22:23:12 10° W 22:26:29 67° S 22:29:45 10° ESE visible
29 Jul -3.0 23:59:43 10° W 00:02:42 32° SSW 00:02:47 32° SSW visible
30 Jul -3.3 23:07:28 10° W 23:10:36 43° SSW 23:12:14 23° SE visible
31 Jul -1.1 00:44:45 10° WSW 00:44:52 10° WSW 00:44:52 10° WSW visible
31 Jul -3.6 22:15:14 10° W 22:18:26 55° SSW 22:21:40 10° ESE visible
31 Jul -2.1 23:52:00 10° W 23:54:20 20° SW 23:54:20 20° SW visible
